Theta_e
312 312 313 311 309 307 307 307 306 306 306 305 306 306 306 307 307 307 307 307 308 308 309 310 312 313 314 314 314 315 315 317 316 316 318 319 318 315 313 313 313 314 315 315 314 314 314 314 313 313 314 317 317 318 319 320 331 344 345 337 323 315 316 315 318 321 321 319 319 317 318 320 318 318 315 312 315 316 315 314 314 313 311 312 313 315 315 316
311 311 311 310 309 307 307 306 306 306 306 307 306 306 306 307 307 307 307 308 308 309 310 311 313 314 314 314 314 315 315 318 318 314 314 316 315 314 313 313 314 316 315 315 315 314 315 315 313 313 317 319 317 319 321 320 325 337 340 331 320 320 317 313 318 320 318 318 318 318 318 319 317 317 315 314 314 314 318 317 313 315 314 313 313 314 315 315
310 311 311 309 308 307 307 306 306 307 307 307 307 307 307 307 307 307 307 308 308 310 311 313 314 314 314 314 314 315 317 320 320 314 314 315 314 314 314 315 315 316 316 316 316 315 315 315 313 313 320 320 317 322 325 321 320 328 336 326 318 322 318 313 317 318 318 319 319 318 316 317 317 316 315 315 316 315 322 321 317 317 315 314 313 312 315 314
309 310 310 310 309 308 307 306 306 306 307 307 308 308 308 308 308 308 308 308 310 310 312 313 314 314 314 314 315 315 319 323 320 314 314 314 314 314 315 315 315 316 316 316 316 316 316 315 313 316 321 320 323 327 323 320 319 323 329 324 317 318 317 315 317 319 320 320 321 320 316 316 316 315 316 317 316 317 323 322 322 320 315 315 313 311 313 313
309 309 310 309 310 309 308 307 307 306 306 306 307 308 309 309 308 308 308 309 310 311 312 313 314 314 314 314 315 317 320 323 319 314 314 314 314 314 314 314 315 316 316 316 316 317 316 314 315 322 322 319 327 328 318 316 320 320 320 320 319 318 317 316 317 320 320 319 321 319 316 316 315 316 318 318 317 321 323 320 320 318 313 314 312 310 311 311
309 310 309 308 309 310 309 308 308 307 306 306 306 307 308 308 308 308 308 309 311 312 313 314 314 314 315 315 316 320 320 319 317 314 314 314 314 313 313 313 314 316 316 317 317 316 317 317 318 324 324 319 321 322 317 315 319 321 317 317 319 318 318 318 318 320 319 319 319 318 316 316 317 317 318 317 317 318 316 314 314 313 310 311 310 310 311 310
308 309 309 309 309 309 308 309 309 308 307 306 306 306 307 308 308 308 308 310 311 313 314 314 314 314 316 315 318 325 324 318 316 315 314 314 313 313 313 313 314 316 317 317 316 317 320 322 320 321 324 320 317 318 317 318 321 324 319 317 318 317 319 319 319 321 322 321 318 317 315 316 319 316 316 318 316 313 310 309 309 309 309 309 310 309 310 309
309 309 309 310 309 307 306 307 308 308 308 307 306 306 307 307 308 308 309 310 312 313 314 314 315 315 316 317 322 329 326 320 317 314 314 314 313 313 313 314 315 317 318 316 316 317 319 320 317 318 322 318 316 317 316 318 323 324 319 317 319 318 319 320 320 322 322 320 317 316 316 318 320 315 315 318 314 312 310 307 306 307 308 309 311 309 308 308
310 309 309 309 309 307 305 305 306 307 307 307 307 307 307 307 308 308 309 311 313 314 314 314 315 315 317 319 321 321 321 321 317 314 314 313 313 313 314 315 316 317 317 316 316 315 317 319 316 316 319 317 316 317 316 318 321 320 318 318 318 317 318 319 320 321 321 320 317 316 318 320 318 315 315 316 313 312 310 309 310 310 311 312 311 308 306 307
311 310 309 309 310 309 307 306 305 305 306 307 308 307 307 307 308 308 310 312 313 314 314 314 315 316 317 317 317 317 320 320 316 314 314 313 313 313 315 316 316 317 317 316 316 316 317 317 315 315 318 318 315 315 316 317 318 318 318 318 318 318 318 318 319 321 319 317 317 317 320 319 315 315 318 315 311 312 311 312 311 312 313 311 310 307 305 306
311 311 310 309 310 310 310 310 308 306 305 306 307 307 307 307 308 309 310 313 314 314 314 315 315 316 317 317 320 320 319 318 316 314 314 314 314 314 315 316 317 317 317 317 315 314 315 315 313 313 317 316 315 316 315 315 315 316 318 318 321 321 319 318 317 317 316 315 318 318 318 318 314 315 320 316 311 311 312 312 311 312 312 309 311 308 305 305
312 312 311 311 311 311 311 312 311 310 307 306 307 306 307 307 308 310 311 313 314 314 315 315 315 316 317 318 322 321 319 319 317 315 316 315 315 315 316 316 317 317 317 317 315 314 314 314 314 316 317 315 316 317 315 314 315 316 318 320 325 328 323 320 317 316 316 316 318 317 316 320 317 317 318 313 310 311 312 312 312 312 311 310 310 308 305 304
311 312 312 312 312 311 311 312 312 312 309 307 306 306 306 307 309 311 313 313 313 314 315 315 316 317 317 319 321 319 319 320 317 317 316 315 315 316 317 317 316 317 317 317 316 314 312 314 315 317 317 318 319 315 315 315 315 318 318 317 324 328 327 321 316 316 315 315 317 316 319 328 328 321 315 311 310 312 312 312 311 311 310 309 309 309 307 304
311 311 312 312 312 312 311 312 313 312 312 310 308 307 306 308 310 312 314 314 313 314 316 316 316 318 320 322 319 318 320 320 318 317 316 316 316 316 317 316 316 316 316 317 317 314 313 314 314 315 314 317 317 313 320 322 319 320 316 321 326 322 331 330 317 316 315 314 317 317 321 328 331 324 314 310 310 312 314 313 311 311 310 309 308 309 308 304
311 311 311 311 311 311 311 312 313 313 313 313 311 308 308 310 312 313 314 315 315 315 316 316 315 318 322 323 318 318 321 320 318 316 316 317 316 316 316 316 316 315 315 316 316 314 313 314 316 318 315 315 317 319 330 331 329 327 317 328 332 319 334 336 316 316 316 314 315 317 323 324 325 323 314 310 311 312 314 312 311 311 309 309 308 307 307 304
311 311 311 311 311 311 311 311 312 313 314 313 312 311 310 313 314 314 314 315 315 316 317 318 316 317 321 322 318 318 320 319 318 316 317 317 317 317 316 315 314 314 314 313 313 314 314 317 317 318 317 317 323 333 339 332 334 338 323 328 335 323 329 329 316 318 318 316 314 315 323 326 324 320 312 310 311 312 314 313 311 311 309 308 307 305 306 304
312 311 310 310 311 312 312 312 312 313 314 313 313 312 313 315 316 315 316 316 316 317 319 320 317 316 318 317 317 319 318 317 318 317 317 318 317 317 314 314 313 313 314 313 314 314 314 318 316 317 322 321 325 335 336 327 330 337 325 323 333 327 325 326 322 320 316 316 315 314 319 323 323 318 312 311 311 312 314 313 311 310 309 308 307 306 305 305
312 312 311 310 311 312 312 312 312 313 314 313 313 315 316 316 316 317 317 316 317 315 316 318 315 315 316 315 317 319 317 316 318 318 317 318 317 316 315 314 313 313 316 316 315 315 317 321 322 324 324 320 322 328 328 326 330 336 328 324 329 325 323 327 326 320 316 316 317 316 316 318 320 318 314 312 310 312 313 312 311 310 309 308 307 306 304 305
313 312 311 311 310 312 312 312 312 313 314 314 314 316 316 316 317 318 317 317 319 316 314 318 315 315 316 316 318 318 317 317 318 317 317 318 316 315 315 313 315 317 319 320 317 317 322 325 325 325 324 321 321 323 324 328 334 338 335 334 333 329 327 328 329 324 318 316 318 318 317 317 317 316 316 314 311 312 312 311 311 311 310 309 307 306 305 305
314 313 311 311 311 312 312 313 314 314 314 315 317 316 316 321 321 319 319 320 322 319 317 320 317 317 319 319 319 318 318 318 318 318 317 317 315 315 316 314 319 321 321 326 322 318 321 325 325 325 325 323 321 321 322 324 328 332 332 334 334 331 329 330 329 325 317 316 322 321 317 318 318 317 318 315 312 312 311 311 312 312 311 309 308 307 305 305
314 313 312 311 312 312 313 315 316 315 314 315 317 317 319 324 318 317 324 324 319 316 319 321 316 316 318 317 318 317 319 318 316 317 317 316 315 316 318 317 320 322 322 328 324 317 319 323 326 325 322 321 321 320 320 320 322 324 325 327 329 329 329 329 326 321 316 317 324 324 319 318 318 317 319 317 315 313 311 311 312 312 310 309 308 307 305 304
313 313 312 311 312 313 314 317 316 315 314 314 316 317 319 319 315 316 321 323 321 317 318 319 315 317 317 316 317 316 320 322 318 318 316 315 316 317 320 321 323 324 322 323 323 320 322 323 323 321 319 319 320 320 319 320 321 322 324 323 326 329 326 327 326 319 315 318 326 329 323 320 320 319 319 319 317 316 312 311 311 312 311 309 308 307 305 304
313 313 312 311 312 313 315 317 315 314 315 315 314 316 317 317 316 316 316 321 326 321 319 320 318 320 319 316 317 316 320 324 323 321 316 314 317 319 320 321 322 324 322 322 324 326 326 328 324 318 320 321 322 322 320 320 322 323 324 323 325 328 325 328 328 321 318 319 323 326 323 319 320 320 321 320 317 317 316 313 311 312 311 310 308 307 305 304
313 313 312 311 312 314 315 315 315 315 315 315 314 316 317 317 316 316 318 321 323 322 321 320 318 319 320 317 316 318 320 322 323 320 316 315 317 319 320 321 322 323 322 322 324 325 327 329 323 318 322 323 322 324 322 322 324 325 325 324 326 328 327 328 327 324 327 326 322 322 324 326 326 322 322 322 317 316 317 315 313 312 311 310 309 307 304 304
313 313 312 311 312 314 313 314 316 315 315 314 314 315 316 317 317 316 319 322 323 324 321 317 318 320 319 316 316 319 320 321 323 320 315 315 317 319 319 320 322 324 322 321 322 323 324 324 322 321 322 322 324 324 326 327 326 327 328 327 328 330 329 327 325 324 331 335 327 321 328 338 336 328 326 324 319 317 316 315 315 313 312 311 310 307 304 303
313 314 312 311 313 314 314 316 316 315 315 314 314 315 316 317 317 315 321 327 324 323 320 316 319 321 318 317 317 318 321 321 320 317 315 315 316 318 320 319 321 323 322 321 322 322 323 321 324 327 323 324 326 325 329 327 323 327 331 329 329 329 328 328 328 326 331 335 325 321 329 336 332 329 330 329 324 323 318 315 315 314 312 311 309 307 305 303
314 313 312 311 313 315 315 317 316 315 316 315 314 315 315 317 317 315 320 326 322 321 322 319 317 317 319 318 315 317 322 321 317 315 315 316 315 316 321 321 320 320 320 322 324 324 324 322 324 326 326 327 326 326 328 325 325 331 328 327 329 328 328 329 328 327 330 330 324 323 328 329 327 328 329 327 326 327 322 316 315 313 311 310 308 306 304 303
314 314 312 311 313 315 316 316 315 315 316 316 316 314 315 316 316 317 320 322 320 321 323 321 315 315 318 316 316 320 320 319 321 318 313 314 316 316 321 322 321 321 321 323 326 324 323 326 326 325 326 327 326 328 329 324 326 330 324 325 329 329 330 331 329 328 326 326 326 326 325 327 330 330 326 322 322 326 325 318 314 312 311 309 307 306 303 302
315 314 312 311 313 315 316 316 315 315 315 316 316 315 317 316 315 322 323 317 321 324 321 320 317 317 318 316 318 322 318 319 322 318 313 313 315 316 319 322 321 321 320 322 325 324 322 323 324 324 325 327 328 329 328 326 324 324 321 324 327 327 329 332 331 330 329 328 328 327 326 328 331 330 325 322 323 326 323 319 315 311 310 308 306 305 303 301
316 315 312 312 314 315 316 316 316 316 315 315 317 316 317 317 317 322 321 317 324 327 318 318 320 320 320 318 319 321 319 319 318 315 316 316 316 317 317 319 322 325 324 323 326 324 320 316 317 322 324 325 327 322 321 325 323 321 325 329 330 330 330 333 330 328 330 329 328 329 328 327 329 331 328 325 327 325 320 322 320 312 310 309 306 304 303 301
317 316 313 312 314 315 316 316 316 317 316 316 318 316 318 323 323 322 320 317 321 324 318 318 321 320 320 320 322 321 319 319 317 316 319 317 318 320 319 319 323 327 327 326 326 324 319 318 319 320 320 322 325 321 318 320 319 324 333 333 332 331 330 331 328 326 330 329 327 327 325 324 327 331 330 325 325 322 319 323 324 315 310 309 306 303 302 300
318 317 314 312 314 316 316 317 316 316 317 317 317 317 319 325 325 324 320 314 315 323 323 322 322 321 320 322 323 321 320 320 317 318 321 319 320 320 320 323 324 326 328 327 326 324 322 324 322 318 317 321 327 326 322 320 319 325 332 331 330 330 329 330 328 325 328 326 321 319 322 324 324 326 327 326 324 322 320 322 323 318 311 308 306 304 301 300
319 317 315 313 314 316 317 317 316 316 317 317 317 319 323 325 325 324 321 315 317 323 323 322 322 322 322 324 325 321 320 321 318 318 320 320 321 320 320 324 324 327 332 327 324 326 327 326 321 318 319 321 324 326 324 323 322 324 326 328 330 329 329 331 328 325 326 325 318 316 320 324 324 324 322 321 321 319 318 320 320 317 312 307 305 303 301 300
319 317 315 313 314 315 317 317 316 317 317 317 318 322 325 324 324 323 321 318 321 322 322 323 323 322 322 325 326 321 322 323 318 319 321 320 322 322 322 323 322 326 331 326 323 326 330 330 325 321 323 322 321 323 326 326 322 320 323 326 328 329 332 333 329 328 329 325 318 315 320 328 330 326 320 318 317 314 314 315 314 312 309 306 304 302 301 300
320 318 316 314 314 315 316 316 316 317 317 317 320 322 324 323 322 321 321 322 325 324 321 322 323 323 324 325 324 321 323 324 318 319 322 322 323 323 322 321 319 324 329 326 325 325 326 331 327 321 320 320 320 322 324 325 322 320 323 326 327 328 330 330 326 324 325 323 319 318 323 328 327 322 317 315 314 313 313 311 312 312 307 304 303 302 301 300
319 318 316 315 315 315 316 316 316 317 317 318 320 322 323 322 322 322 321 323 326 324 321 322 324 326 325 324 323 321 322 324 321 321 322 321 322 322 321 321 319 320 324 324 327 326 327 329 322 317 318 318 319 321 322 324 326 322 321 324 324 322 325 328 324 318 319 323 323 320 323 325 323 321 318 314 313 314 313 310 310 310 305 304 304 302 301 300
318 317 316 315 315 315 315 316 317 316 317 319 321 322 322 323 325 324 323 323 323 321 323 324 324 326 325 324 325 322 322 324 321 321 323 321 323 322 320 322 320 318 320 323 326 328 330 330 319 316 320 316 314 320 321 320 322 323 324 324 321 321 325 330 328 323 322 326 325 321 322 324 324 324 318 313 316 319 315 312 309 307 305 305 304 302 301 300
318 317 317 316 316 316 315 316 317 316 318 320 321 321 321 322 325 325 324 323 322 321 323 323 321 324 325 325 325 322 321 324 321 321 324 322 323 323 320 322 321 318 318 320 324 326 327 328 320 316 319 316 313 320 324 318 316 321 326 323 323 327 327 326 327 327 326 327 326 323 320 320 321 324 322 318 321 323 318 314 311 308 307 306 304 303 301 300
317 318 319 317 316 316 315 316 316 316 319 321 320 320 320 320 323 327 326 321 320 321 322 321 321 323 323 324 324 321 321 323 321 320 323 322 323 323 319 321 322 319 318 318 322 325 324 327 324 315 314 316 315 319 324 321 316 317 320 319 320 325 325 324 325 326 327 328 329 327 324 323 320 320 325 325 321 319 317 315 313 309 307 305 304 303 301 301
316 318 320 319 317 317 316 315 316 318 320 320 318 318 319 319 320 326 328 322 319 322 321 321 323 323 323 322 322 322 321 321 320 320 323 322 322 322 318 319 322 320 318 317 320 323 322 324 325 316 312 316 320 320 322 322 318 317 320 320 319 319 320 323 323 323 326 328 330 329 326 328 325 319 320 323 320 315 315 315 313 308 306 304 304 303 302 301
315 315 316 317 317 317 316 316 318 320 321 320 318 317 317 319 319 322 324 322 321 323 322 322 323 323 323 322 322 323 321 320 320 319 322 321 321 323 320 319 322 321 318 319 321 323 323 324 326 320 315 319 323 320 317 318 319 318 320 320 319 319 320 323 323 321 322 324 328 329 325 327 329 321 316 318 317 313 312 313 313 310 306 305 304 303 302 300
314 312 313 317 318 317 316 318 319 320 320 318 316 316 317 320 321 320 321 322 322 323 322 323 323 322 323 322 322 322 321 321 320 319 321 320 320 324 322 320 321 320 319 320 321 322 324 325 326 323 318 319 321 316 313 316 319 318 319 320 320 320 319 323 326 323 321 321 323 325 325 325 323 318 318 321 319 315 312 311 312 311 307 305 304 304 302 301
313 311 313 315 316 317 317 319 320 319 318 316 314 316 317 318 320 319 320 322 323 323 323 324 324 322 322 323 323 322 321 322 321 320 322 321 319 323 323 321 322 320 319 321 321 320 323 325 325 323 321 321 320 316 313 313 315 317 319 320 320 319 318 321 323 322 322 322 321 322 324 324 320 315 317 318 317 317 315 312 312 312 308 306 305 304 303 301
313 312 312 313 315 317 319 320 320 317 316 315 315 316 316 316 318 320 320 320 322 324 323 324 324 322 322 325 324 322 321 323 322 320 322 322 319 321 322 321 321 320 320 322 322 321 322 324 325 325 325 324 323 320 317 314 315 317 320 319 317 317 318 319 319 319 321 322 323 324 324 326 325 318 315 314 315 317 315 312 312 311 309 307 306 304 303 302
314 313 313 314 314 316 318 319 318 316 315 314 314 315 316 316 316 318 320 320 321 323 323 323 324 324 324 324 322 321 320 322 324 322 321 321 319 317 319 319 319 320 321 323 322 321 324 325 325 326 327 326 326 324 322 319 316 317 319 319 317 317 318 319 319 320 320 321 323 323 323 328 328 319 315 315 316 317 316 312 310 309 309 308 306 305 304 302
313 313 314 315 314 315 316 316 317 317 315 313 313 314 315 316 315 316 318 320 321 321 323 325 325 324 325 324 323 323 321 321 325 324 321 321 321 317 315 315 317 320 322 322 320 321 325 326 324 324 325 326 327 325 322 321 320 318 318 318 318 317 317 318 320 321 322 322 322 321 321 326 324 319 317 317 317 318 316 312 310 310 309 308 306 305 304 302
312 313 314 315 315 314 313 313 315 317 314 313 313 313 313 314 315 315 317 319 321 321 322 324 323 324 325 324 324 324 322 321 323 323 321 321 320 315 310 312 316 317 319 320 319 322 326 324 322 323 323 324 326 324 320 320 321 320 318 317 317 317 317 318 319 321 323 323 323 321 321 322 321 319 319 318 317 318 317 313 310 309 308 307 306 306 305 303
311 313 313 314 315 315 313 311 312 314 314 313 313 312 313 314 314 316 317 318 319 321 322 322 322 323 323 324 324 324 324 323 322 322 321 319 319 315 311 313 314 313 316 317 317 321 324 323 321 323 322 321 323 322 319 318 319 318 318 318 317 317 317 318 318 319 321 322 322 322 322 322 320 318 318 318 316 315 316 313 309 308 308 307 307 307 306 304
309 310 311 311 313 315 314 312 312 313 314 313 313 313 313 313 314 315 316 318 318 319 322 322 321 322 322 323 324 323 323 324 323 322 320 319 319 317 316 316 314 312 315 317 316 318 321 322 321 321 322 321 321 321 320 318 317 317 318 317 316 316 316 317 318 318 319 320 320 321 322 320 318 318 317 316 313 311 312 311 309 309 308 306 307 307 306 304
307 308 309 309 310 312 314 314 314 314 312 312 312 312 312 313 314 315 316 318 318 318 320 321 320 321 321 321 322 322 322 323 323 322 320 319 318 317 318 319 315 312 313 316 316 316 318 321 321 319 321 321 319 319 319 319 318 318 318 317 315 315 315 315 317 317 318 319 318 319 320 319 319 321 318 313 312 311 311 311 310 309 307 306 307 307 306 304
304 303 304 307 308 310 313 315 316 315 313 312 312 312 312 312 313 315 316 317 318 318 319 320 320 320 320 320 321 321 321 320 321 321 319 318 319 318 318 318 315 314 313 315 316 316 316 319 318 318 322 321 319 319 319 317 317 318 318 318 315 314 314 315 316 316 317 318 318 318 319 318 319 320 316 312 311 311 311 309 308 307 306 307 308 308 307 305
302 301 302 304 306 308 311 313 315 315 314 313 312 312 313 313 313 315 316 317 318 318 318 319 320 320 320 320 320 321 321 321 321 321 318 318 319 319 318 316 315 315 314 314 315 316 316 317 317 318 321 320 319 320 318 316 318 319 319 318 316 315 315 315 315 315 316 317 318 318 318 317 317 317 316 314 312 311 310 308 308 308 307 307 308 308 307 306
Wind_Speed
4 3 4 5 6 7 6 6 7 7 7 7 7 6 6 6 6 6 6 6 6 6 5 5 6 6 7 7 7 6 7 4 1 0 1 3 4 4 3 4 4 3 3 4 5 4 5 6 8 11 8 3 3 2 3 2 3 5 4 4 3 2 2 4 6 6 4 4 5 3 3 7 2 2 1 2 7 5 4 6 4 6 7 7 8 9 9 9
4 4 4 6 7 7 7 7 6 6 6 6 6 6 7 7 7 6 6 6 6 6 5 5 6 7 7 7 7 7 8 4 1 3 2 3 6 6 5 5 4 4 4 4 6 7 5 4 9 10 6 2 3 3 2 3 3 4 3 4 2 5 2 3 6 5 3 5 6 2 2 5 5 3 1 1 1 3 5 4 3 5 6 7 9 10 10 11
4 4 4 5 6 6 7 7 6 6 6 6 6 6 6 6 7 7 6 6 5 5 5 5 6 7 7 8 7 8 9 2 1 2 3 7 9 8 7 6 5 5 4 4 6 7 4 4 7 4 4 2 2 3 3 4 3 2 4 4 3 6 1 1 4 5 4 6 7 2 2 3 3 2 1 2 2 1 4 3 2 2 3 3 5 9 11 12
4 4 4 4 5 6 6 6 7 7 6 6 6 6 6 6 6 6 6 5 4 4 5 5 6 7 7 8 8 9 7 3 0 2 6 9 9 8 7 6 5 5 4 5 6 6 6 5 3 2 3 2 3 3 3 2 1 2 3 4 5 4 3 1 3 4 3 5 6 4 2 1 3 2 1 4 3 2 5 6 6 7 8 6 4 7 11 12
4 4 4 4 4 4 5 6 6 7 6 6 6 6 6 6 6 5 5 5 4 4 5 6 6 7 7 8 9 9 5 4 2 6 8 8 9 8 6 5 5 4 4 6 5 5 6 4 4 5 4 2 4 5 1 3 2 3 1 3 5 4 3 3 4 4 4 5 5 5 3 1 1 1 3 6 5 5 5 5 7 8 10 9 7 8 10 11
5 4 4 5 4 4 5 5 5 6 7 7 7 6 6 6 5 4 4 4 4 4 5 5 6 6 7 8 9 7 2 1 4 8 8 8 8 6 5 4 4 4 4 4 5 6 5 4 6 4 3 3 2 3 1 4 3 4 1 1 2 3 4 3 3 3 4 6 4 4 3 1 3 1 3 6 5 4 2 3 7 9 11 12 11 10 9 9
6 5 5 5 5 5 6 6 6 6 7 7 7 6 6 5 4 4 4 3 4 4 4 5 6 6 6 7 7 4 2 2 5 10 9 8 6 4 3 2 2 3 3 4 7 5 4 6 5 3 4 3 1 2 1 4 5 5 1 2 1 1 4 4 4 3 5 6 4 3 2 1 3 2 1 3 3 1 2 6 11 12 13 13 10 8 8 10
5 5 5 4 5 5 6 6 6 7 7 7 6 6 6 5 4 4 4 3 3 3 4 5 5 5 6 5 3 3 2 3 6 12 10 7 6 4 2 1 1 1 3 6 7 3 3 6 3 2 3 2 2 2 1 4 6 4 3 2 1 1 1 3 3 4 4 4 2 3 1 4 5 3 1 3 4 3 5 8 11 11 11 10 8 7 9 10
6 5 5 4 3 4 5 5 6 7 7 6 6 6 6 5 4 4 4 3 3 3 4 4 4 4 5 4 3 2 3 3 9 12 9 7 7 5 3 1 0 0 3 5 5 4 2 2 1 2 3 2 2 2 1 3 1 2 4 2 0 2 2 1 3 4 4 3 3 2 3 6 4 2 2 3 7 5 6 7 7 9 8 7 6 7 9 9
7 6 5 3 3 3 4 4 5 6 6 7 7 6 6 5 5 4 4 3 3 4 4 4 3 3 4 3 4 0 3 4 9 11 9 8 7 5 4 1 1 0 3 3 5 6 3 2 2 2 5 2 2 1 1 2 2 2 4 3 1 2 4 2 4 5 2 2 3 5 5 5 3 1 2 4 7 5 8 7 5 7 6 6 5 5 9 9
8 7 6 4 3 3 2 3 4 5 6 6 6 6 6 5 5 5 4 4 3 4 3 3 3 3 2 3 4 3 3 5 9 11 10 8 7 6 4 3 2 2 2 4 4 5 3 1 2 2 2 1 1 2 2 1 2 2 3 1 3 5 5 3 4 5 2 2 5 7 4 4 3 1 5 6 7 6 9 7 5 7 5 6 5 4 7 8
9 8 7 6 5 3 2 4 4 5 6 6 7 7 6 5 5 5 4 4 4 4 3 3 2 2 2 3 2 5 4 6 9 11 10 9 8 6 4 4 3 3 2 3 3 3 3 2 3 4 0 2 2 2 0 1 2 1 3 2 6 8 5 4 4 4 6 3 5 7 2 5 3 5 5 5 9 6 8 7 5 6 5 5 5 4 5 7
10 9 8 7 7 6 4 4 4 5 5 6 7 7 6 5 5 5 5 4 4 4 3 2 2 1 2 0 4 6 7 7 9 10 10 9 8 7 6 5 4 2 1 3 2 2 3 2 4 4 2 4 2 1 2 2 2 1 3 2 4 7 5 5 1 4 7 3 5 7 1 6 7 7 4 5 10 8 7 7 6 6 5 5 5 4 4 5
11 11 10 9 8 8 6 5 5 5 5 6 6 6 7 5 4 5 5 5 4 4 3 2 1 1 2 2 4 5 8 9 9 10 10 10 9 7 6 4 4 3 2 2 2 1 2 1 5 4 2 3 2 1 3 5 3 1 2 2 2 2 4 7 2 6 7 2 3 7 1 6 8 8 5 7 9 10 9 7 7 6 5 5 4 5 4 4
13 12 11 10 9 9 8 5 4 4 5 6 6 6 6 4 4 4 5 5 5 4 3 2 1 2 2 3 4 4 8 8 9 11 10 10 9 6 5 5 4 2 2 3 3 2 2 2 4 4 0 2 3 4 3 4 3 2 0 3 3 2 5 8 2 7 6 1 2 6 2 6 8 8 6 7 7 9 9 8 8 7 7 6 5 5 4 4
13 14 13 11 10 10 8 5 4 3 5 7 6 5 4 4 4 5 5 5 5 4 2 2 2 4 2 3 2 3 7 7 9 12 11 10 8 5 6 6 4 4 3 3 4 3 3 4 3 2 2 2 4 5 4 4 4 3 1 3 2 3 3 6 2 2 3 2 1 3 2 3 5 5 4 7 7 8 7 8 9 8 7 7 5 5 4 4
13 13 14 12 13 11 9 7 5 3 5 6 5 3 4 4 3 4 5 5 5 4 3 3 3 4 0 1 1 3 6 8 10 14 12 9 8 8 9 6 3 4 4 4 3 2 3 4 1 1 2 3 3 5 3 2 3 4 0 3 4 3 2 3 4 3 2 4 3 4 3 6 6 4 3 7 7 7 8 9 9 8 7 6 5 5 5 5
15 13 13 12 13 13 10 9 6 2 4 4 3 3 5 4 3 4 5 7 6 5 3 1 4 2 3 3 3 3 5 9 11 13 13 9 9 10 7 4 4 6 5 4 3 2 3 4 2 1 3 2 2 5 3 5 4 3 3 2 3 3 3 3 4 3 4 3 4 5 4 9 11 7 5 7 7 8 10 9 8 8 7 7 6 6 6 5
16 15 14 12 13 13 11 8 5 1 3 3 3 6 6 5 3 3 5 7 5 3 1 3 4 3 4 5 4 4 7 10 11 12 12 10 11 9 5 4 5 6 4 2 2 1 2 3 3 2 2 4 5 7 8 8 7 7 6 4 4 4 3 4 5 5 6 4 4 7 7 9 12 10 7 7 7 9 10 7 6 7 7 7 7 6 6 6
17 16 15 14 13 12 9 7 5 2 3 3 6 7 5 3 2 1 2 3 5 4 2 5 8 4 0 1 5 9 9 8 5 8 11 11 12 8 3 4 6 5 2 4 2 0 3 3 2 5 8 9 9 9 9 6 6 5 5 4 4 4 4 4 4 6 4 4 6 8 9 9 10 11 9 6 6 8 9 8 7 8 7 8 8 7 7 6
18 17 16 15 15 12 10 8 7 4 4 6 7 4 2 4 3 2 3 4 10 10 5 4 6 2 1 3 10 13 7 3 1 4 12 12 11 8 1 2 4 1 2 4 2 1 3 4 8 10 10 9 8 9 7 4 4 3 4 3 4 4 6 5 3 5 1 3 6 5 6 10 10 10 9 5 6 10 12 11 10 10 9 8 8 8 7 5
20 18 16 16 16 13 11 9 10 7 6 8 7 3 3 1 2 1 2 2 10 15 12 5 3 5 3 4 12 11 4 3 0 3 11 10 8 7 2 3 5 3 2 4 3 1 2 5 11 11 5 4 4 6 6 5 5 4 2 2 4 3 4 6 4 3 0 2 4 4 5 8 10 9 9 8 9 9 10 12 12 12 11 9 9 9 8 7
22 20 18 18 17 15 11 9 10 8 8 10 9 6 2 1 2 3 1 1 5 7 8 7 6 6 4 2 10 10 2 4 4 5 12 10 4 5 5 5 6 4 4 5 5 4 4 6 11 9 6 6 5 4 6 4 4 5 3 3 4 3 2 4 5 4 1 1 2 4 5 7 7 7 10 10 7 6 6 9 11 10 12 12 11 10 10 10
23 21 19 19 19 16 12 10 10 10 12 11 13 13 6 5 4 4 2 1 4 4 5 9 8 6 7 5 10 12 3 4 5 6 14 12 5 3 5 6 6 4 5 9 9 7 8 6 4 7 9 8 6 3 6 5 4 5 6 6 5 4 5 5 3 3 4 4 1 3 7 6 6 9 12 7 3 4 4 5 8 8 8 8 7 8 9 10
24 23 20 21 20 17 14 12 11 13 11 9 16 18 10 7 5 5 3 1 4 5 3 6 5 6 11 9 11 11 2 4 4 7 17 15 9 4 3 4 4 5 8 8 8 7 9 5 3 7 7 7 7 5 5 7 5 5 5 8 8 7 7 4 1 3 4 5 3 1 4 6 4 6 10 5 3 5 3 3 7 6 6 7 8 8 8 7
25 23 22 23 22 19 15 9 12 15 10 10 16 16 12 8 4 4 4 3 4 4 0 4 4 8 12 10 10 6 1 5 4 7 17 16 10 5 2 3 2 5 8 6 4 3 6 5 5 7 7 7 6 5 6 7 5 4 5 8 8 7 6 4 3 2 1 4 4 2 2 7 5 4 8 5 5 8 5 5 6 6 6 7 8 8 8 8
25 24 23 25 25 24 15 6 12 15 6 9 13 14 14 11 5 2 3 3 5 4 5 2 2 7 10 10 12 8 2 5 2 5 10 11 8 2 2 5 2 3 4 4 3 2 5 8 5 5 6 6 6 5 6 7 7 5 4 5 7 7 6 5 5 4 3 3 4 2 3 4 7 6 6 4 5 8 8 8 7 6 7 7 7 8 9 9
26 25 25 27 29 29 17 7 15 16 8 2 5 15 17 12 8 2 4 1 4 3 4 1 1 4 5 8 11 7 2 3 5 3 2 4 6 1 2 7 6 6 5 6 5 4 4 8 9 8 5 5 6 4 6 9 5 5 3 6 6 6 5 4 5 3 1 2 4 2 3 2 8 6 2 1 3 9 12 12 10 9 9 8 7 8 8 8
27 26 27 29 29 29 20 10 13 15 14 5 4 16 19 12 8 4 4 3 2 2 2 1 3 2 4 7 5 2 1 2 2 2 2 3 3 2 3 6 5 6 5 4 6 3 1 5 8 9 6 7 5 1 6 10 6 4 6 7 6 5 5 5 4 3 3 2 5 5 4 2 7 5 2 2 3 9 12 9 8 10 9 8 8 8 8 8
30 28 28 30 30 30 24 15 13 12 11 7 7 19 19 9 4 4 2 5 1 1 1 2 2 2 8 10 3 1 2 1 1 1 2 1 1 4 1 2 5 4 2 3 1 2 2 1 2 4 4 6 5 3 2 6 7 6 6 7 7 6 5 4 2 4 2 5 5 9 10 6 5 4 4 3 4 6 5 4 4 8 9 9 8 8 8 8
33 29 29 34 33 33 24 15 19 16 8 9 15 20 15 3 2 4 6 3 1 1 2 1 1 4 12 13 6 3 3 1 1 4 3 1 1 2 1 1 3 2 2 4 3 3 4 2 1 1 2 4 6 4 3 1 5 6 5 5 4 4 5 4 4 3 1 6 4 8 10 9 8 7 3 5 6 5 5 4 6 9 11 11 9 9 9 8
36 31 31 36 35 33 24 17 25 21 9 15 19 14 7 2 1 6 5 1 0 4 5 3 2 6 11 11 8 7 5 2 3 6 6 4 4 5 4 5 5 2 2 5 3 2 2 3 2 2 1 4 6 4 5 5 2 4 5 6 4 1 3 2 3 0 4 6 3 2 4 5 9 8 6 10 11 6 6 6 6 9 11 10 10 9 8 8
38 35 34 38 38 36 27 20 27 23 15 20 16 4 3 5 7 10 9 4 2 3 4 4 4 8 11 9 5 4 3 2 5 5 4 4 4 6 4 3 6 3 2 5 4 2 3 5 1 1 3 3 8 7 3 1 3 5 6 6 5 3 1 3 3 2 4 5 4 1 2 3 5 5 9 14 12 5 4 7 6 8 11 11 10 9 9 9
38 38 38 40 41 39 30 24 28 28 23 20 11 3 4 7 10 13 14 8 1 1 2 4 6 6 7 6 4 5 4 3 5 5 3 5 5 6 5 5 7 3 3 3 3 5 5 6 4 7 3 5 10 9 6 6 5 6 5 6 6 6 4 4 4 4 4 4 4 2 2 4 3 3 6 8 7 5 4 4 1 3 6 8 8 8 9 9
39 42 41 39 40 40 35 28 28 31 25 14 7 7 10 10 11 13 12 6 2 1 3 4 7 6 5 3 2 5 5 2 4 5 4 6 5 7 7 8 9 5 4 4 2 3 5 6 6 3 1 8 10 5 5 7 3 3 2 4 4 6 6 3 3 5 3 2 3 2 4 4 4 5 5 3 4 3 4 3 4 5 5 7 7 8 8 8
42 43 40 37 39 42 40 33 31 34 24 10 8 10 11 12 10 8 7 6 5 6 7 4 4 5 6 3 2 6 3 2 5 5 3 4 3 5 6 6 10 11 8 6 3 2 3 5 4 3 2 5 6 3 4 3 3 2 2 4 3 3 6 3 2 1 3 3 4 3 5 5 3 6 4 0 2 3 3 2 3 5 6 7 7 7 8 8
41 37 32 34 40 44 44 38 36 35 19 7 12 12 10 12 6 5 6 5 7 10 10 5 4 6 7 5 4 7 4 2 5 5 4 3 3 6 7 4 8 14 13 6 3 3 4 3 4 2 1 3 1 2 3 2 3 5 4 6 2 2 3 3 2 2 2 4 4 3 7 5 2 5 3 3 3 7 5 2 2 4 6 7 7 7 8 8
32 23 22 33 43 45 46 44 39 28 10 5 11 10 10 12 5 5 6 5 8 10 9 8 7 7 8 7 6 8 7 5 6 6 4 3 4 7 11 6 6 14 15 8 3 2 4 2 4 1 3 3 3 2 2 5 2 4 4 5 4 2 1 2 2 2 2 4 4 3 5 5 6 6 2 3 8 9 7 5 5 7 9 9 8 8 8 7
16 7 8 27 42 44 48 49 35 16 6 7 10 8 9 10 5 2 5 6 8 9 10 11 8 5 6 8 6 8 9 8 8 7 5 5 5 6 11 8 5 12 16 12 7 2 3 3 3 1 1 1 2 2 3 2 1 3 1 2 2 2 3 3 3 3 3 3 3 3 3 4 7 7 7 10 12 12 10 9 9 11 11 10 9 9 9 9
5 2 3 14 35 46 50 43 22 9 8 9 9 9 9 9 6 4 5 6 6 6 9 12 9 6 6 7 6 7 8 7 9 8 5 6 5 4 8 9 6 8 13 13 9 2 2 3 3 1 1 1 2 4 8 9 5 3 3 4 2 1 2 1 1 2 3 3 3 3 5 5 5 5 10 13 13 13 13 12 12 11 11 11 10 10 10 10
2 3 4 8 31 46 41 24 8 7 10 9 11 13 10 7 6 6 6 4 2 2 3 7 10 9 7 7 6 6 7 6 7 7 5 6 6 4 6 10 9 7 8 9 8 5 3 3 3 2 1 3 5 5 5 7 7 7 6 8 7 5 4 3 3 2 3 3 4 3 6 8 4 4 8 10 10 12 13 14 12 11 11 11 10 10 10 10
2 6 3 7 33 44 26 9 7 7 7 9 12 11 5 3 5 7 7 4 2 2 0 3 8 9 7 8 8 8 8 7 8 8 6 8 9 6 7 9 10 10 9 7 7 5 3 3 4 3 3 4 5 3 0 2 4 3 3 5 6 7 7 6 5 4 2 2 3 3 4 8 4 3 4 6 6 6 8 10 10 8 10 11 10 9 9 9
4 8 2 3 28 38 15 6 10 7 6 8 10 8 4 3 5 7 8 9 6 3 3 2 4 7 7 6 6 9 9 7 9 11 6 6 9 6 6 10 10 11 9 5 3 4 3 3 3 1 2 3 4 3 3 2 2 1 4 4 5 7 7 4 3 3 3 4 3 2 5 7 4 2 3 4 5 5 5 7 8 7 7 9 10 9 8 8
3 6 3 7 20 26 10 6 10 7 6 8 9 12 9 5 7 9 10 14 9 4 5 4 3 6 6 4 6 10 12 7 8 12 8 5 6 2 5 10 11 10 8 5 6 6 4 4 4 2 1 2 2 2 1 0 2 4 5 5 6 6 6 2 1 2 3 5 9 5 9 7 4 4 3 3 3 5 6 6 7 7 8 9 9 8 8 8
1 3 3 5 13 14 5 3 8 9 10 10 10 15 13 6 8 11 10 12 11 7 7 5 3 4 4 4 6 8 12 11 8 8 7 4 3 1 1 6 10 10 6 4 9 9 5 4 6 6 7 6 6 6 5 3 3 2 2 6 8 10 10 6 2 4 6 5 10 10 11 6 4 5 4 4 2 5 7 5 6 7 8 9 8 8 8 8
2 3 3 4 6 7 5 1 3 6 10 10 7 11 15 12 9 10 10 9 10 10 6 1 3 5 3 5 8 8 12 13 5 4 7 6 3 2 1 2 4 5 2 5 10 9 3 4 9 11 11 10 6 4 4 6 5 5 6 10 12 13 13 9 6 8 5 3 7 12 9 8 8 6 5 5 4 6 6 5 7 8 8 8 8 8 8 8
2 3 3 4 3 6 7 5 3 4 7 10 6 6 14 17 10 8 10 9 9 11 8 2 4 7 7 9 10 9 11 11 5 5 9 8 3 1 1 1 2 2 4 6 8 6 3 5 10 11 13 10 5 3 5 9 9 11 11 12 13 14 14 14 14 11 6 3 12 10 7 12 14 8 8 7 6 7 8 9 10 9 8 8 7 7 8 8
3 2 2 2 1 5 8 8 8 8 8 10 7 5 11 16 12 9 10 10 8 9 8 5 8 14 15 14 11 8 8 9 8 7 7 6 3 2 0 2 0 1 4 6 4 4 4 7 8 9 14 13 5 5 5 8 7 8 11 14 15 16 18 19 20 15 9 9 17 8 10 16 17 9 9 9 9 11 10 8 7 6 7 7 9 9 9 9
1 1 1 1 1 4 7 7 9 10 10 8 7 7 9 14 16 12 8 8 9 10 9 11 15 18 17 14 11 9 9 10 10 10 7 6 5 5 3 1 1 1 3 6 5 2 4 6 5 8 13 15 9 6 6 7 4 5 9 14 16 19 21 19 19 18 14 16 21 12 11 17 12 8 10 10 10 8 3 3 4 7 9 9 10 10 10 10
1 1 1 1 2 2 4 5 7 8 9 8 7 7 8 12 17 14 9 9 11 12 12 17 20 15 15 15 12 12 15 15 15 13 11 10 8 7 6 5 4 2 2 5 5 3 4 4 5 7 8 13 9 7 6 7 7 7 11 16 15 13 14 15 17 17 15 18 21 15 15 17 8 6 8 6 5 4 4 5 6 7 8 9 9 9 9 10
3 2 1 1 2 2 3 3 6 6 7 6 7 7 8 12 15 13 10 10 12 12 14 21 21 13 11 14 16 19 21 19 16 11 11 13 11 8 6 5 7 8 5 5 5 4 5 3 2 6 6 9 7 10 9 7 5 9 19 21 14 9 9 14 16 15 15 18 18 12 14 17 9 6 4 2 5 6 7 8 7 6 7 9 10 10 9 10
4 3 2 1 1 2 2 2 5 7 6 6 9 9 9 12 12 10 7 7 11 13 13 18 19 11 8 15 21 23 19 13 9 6 7 8 5 4 4 5 9 11 9 6 4 3 6 5 3 6 6 6 5 11 9 6 4 10 17 16 14 14 16 17 15 16 16 15 13 12 15 16 8 7 6 5 7 9 9 8 7 7 8 8 9 9 10 10
Wind_Direction
193 192 197 195 191 188 185 192 192 191 190 188 189 191 196 202 209 214 225 232 240 250 257 274 284 294 299 307 318 332 343 347 16 38 208 213 185 147 102 94 90 59 37 19 13 20 29 22 358 355 4 13 20 347 350 13 57 57 79 85 96 153 152 179 182 194 168 162 205 241 160 132 173 276 122 48 51 80 66 45 31 30 49 72 90 101 105 123
196 199 199 198 198 188 187 194 192 189 188 189 193 198 200 204 213 217 223 232 241 249 261 277 287 295 300 312 320 335 341 326 140 39 48 159 157 140 112 96 74 49 35 31 28 28 36 354 335 357 26 30 345 353 10 5 56 83 107 88 164 199 189 197 179 193 181 152 176 206 156 138 165 196 110 120 47 97 90 35 24 55 59 64 78 94 105 114
200 204 203 202 200 190 189 192 189 189 190 190 195 201 203 208 215 218 224 231 242 253 270 282 290 298 304 313 324 339 340 343 155 7 92 126 132 125 106 92 65 47 39 29 17 15 13 314 320 356 39 36 342 7 29 17 44 113 109 83 222 211 175 270 171 175 191 151 146 168 156 125 178 188 74 167 168 145 154 169 166 160 161 112 75 90 102 106
203 203 208 207 203 197 191 188 189 194 196 196 199 204 205 213 217 220 224 230 247 260 274 285 291 299 306 313 327 335 346 49 172 206 132 127 126 119 103 89 60 36 19 13 6 2 348 324 341 49 63 32 328 22 47 358 33 84 99 141 207 174 116 248 196 157 145 138 143 147 110 98 222 190 140 154 151 276 234 204 188 183 171 156 132 102 104 105
204 209 213 207 207 210 197 191 194 194 200 203 205 209 211 219 220 219 225 234 252 263 276 286 291 300 309 315 327 330 360 58 223 186 145 137 130 121 105 84 49 25 8 8 1 9 5 6 52 49 63 52 339 30 36 294 75 72 27 189 189 143 131 234 221 185 142 115 109 121 138 188 191 160 156 153 175 244 239 210 181 162 155 153 147 124 109 104
204 211 217 208 210 218 204 196 199 198 202 210 213 214 218 223 221 220 228 241 253 267 279 285 293 300 311 318 325 333 56 76 220 181 162 150 137 129 110 75 34 14 354 8 13 24 26 31 52 48 54 52 15 68 279 308 63 104 320 291 211 162 153 193 211 207 146 114 126 163 185 127 89 277 201 161 199 243 224 153 136 134 144 144 136 127 114 108
209 209 215 215 217 221 207 196 201 205 209 216 220 220 225 228 224 226 233 243 253 270 280 287 296 298 318 325 326 360 92 260 212 178 174 160 153 153 122 58 22 1 341 19 24 33 46 39 56 100 74 61 123 119 55 346 38 94 153 297 308 155 149 177 184 165 134 135 180 166 107 134 156 207 215 166 221 245 102 105 113 123 133 130 121 120 120 115
217 214 216 222 227 225 213 206 205 206 212 219 223 225 228 231 228 229 231 240 252 270 279 286 295 300 326 333 339 18 352 256 186 178 180 171 178 183 173 323 348 2 26 29 19 35 63 48 62 120 79 76 141 124 77 25 24 74 155 231 301 321 184 198 178 149 156 170 174 92 101 228 201 179 280 197 192 158 126 108 110 117 116 116 113 119 124 119
220 221 221 222 228 229 224 222 215 211 216 219 223 228 229 230 231 230 225 231 246 264 275 280 289 303 327 1 80 42 288 207 173 178 181 183 193 204 220 286 347 30 57 34 30 64 77 82 195 164 141 182 107 113 74 51 330 183 161 198 28 306 300 167 191 198 200 209 146 124 278 269 244 213 292 197 178 166 124 109 112 114 108 114 119 129 130 127
220 225 221 216 223 232 232 235 229 222 225 224 225 228 229 228 226 228 219 219 240 257 268 267 280 308 323 16 85 133 259 172 169 176 180 192 201 214 220 201 216 148 69 49 50 61 85 162 207 145 130 139 92 95 348 90 186 177 149 178 167 295 298 166 206 232 219 274 174 180 251 288 317 250 252 219 182 159 122 117 120 116 124 135 129 132 129 129
224 226 221 218 230 240 241 254 253 241 237 233 233 229 227 225 219 223 215 214 234 246 259 261 277 305 319 60 114 206 219 161 171 175 183 197 202 214 216 213 213 170 89 74 71 65 79 170 178 120 98 82 88 22 343 134 144 139 131 254 309 333 308 213 223 240 165 253 190 166 238 297 356 249 229 202 174 158 137 140 141 130 141 145 135 128 124 126
227 226 226 229 240 251 251 260 269 264 259 250 244 240 231 220 212 214 207 208 226 238 251 253 275 302 360 62 155 217 209 176 179 178 186 194 193 200 193 194 189 165 130 97 96 82 64 11 79 95 212 146 113 18 268 159 109 105 72 350 314 353 330 251 234 207 164 202 184 144 320 301 242 232 243 174 157 153 142 152 159 151 153 147 142 129 127 130
230 227 227 233 241 245 243 254 275 283 280 268 256 252 244 224 208 206 199 203 212 222 236 232 270 345 58 330 232 224 214 197 187 181 183 186 188 191 177 177 183 179 175 126 127 97 66 10 80 107 133 111 137 224 120 53 59 33 44 49 316 1 330 278 298 165 163 181 167 139 291 280 249 252 253 164 154 146 149 169 173 165 163 158 153 136 140 141
234 233 228 230 233 237 241 242 263 291 308 297 276 260 253 230 205 202 189 193 198 209 224 206 240 55 82 245 251 231 217 204 192 182 177 180 180 178 173 178 198 217 221 165 157 99 73 66 86 96 95 93 162 147 43 11 27 25 11 25 360 17 281 292 324 150 159 197 138 123 196 263 269 273 228 178 165 157 167 184 179 177 174 167 163 150 154 155
234 238 235 231 222 227 237 231 246 286 317 312 293 271 253 217 206 203 184 187 185 192 207 186 166 94 64 281 273 225 210 204 192 181 176 180 175 167 172 174 176 168 165 172 161 130 117 121 92 91 37 10 69 78 28 353 9 38 29 318 337 173 265 307 309 155 157 220 99 121 205 266 276 271 204 177 176 171 176 188 185 184 181 175 171 158 155 154
233 236 239 231 213 218 232 235 244 273 316 309 292 271 229 188 195 188 176 179 172 172 152 119 126 107 86 275 274 203 205 204 191 182 180 185 184 172 155 147 136 129 131 139 141 135 93 77 74 110 135 57 74 88 46 12 344 353 129 245 267 179 270 318 321 207 154 133 142 176 214 260 283 285 198 178 184 181 183 194 193 190 185 178 173 164 157 150
238 236 240 228 208 209 222 234 240 267 319 307 282 249 183 163 176 174 171 165 154 142 113 105 110 107 152 245 220 234 202 191 188 183 183 185 188 172 148 131 115 114 105 92 108 114 44 42 39 275 68 73 100 98 63 338 287 314 14 227 247 198 218 294 292 289 120 132 207 221 230 245 268 294 209 199 191 186 199 204 199 194 186 179 172 168 167 161
239 237 239 230 209 204 216 230 234 267 315 299 254 184 144 133 137 144 157 155 126 84 68 101 103 105 259 218 192 214 173 176 181 178 181 178 172 166 144 125 121 105 78 48 46 54 22 19 52 52 30 45 124 112 149 223 207 199 195 204 250 226 212 243 261 232 149 147 206 202 237 254 265 271 224 212 197 196 215 211 200 196 184 180 178 174 176 171
237 237 234 228 214 208 216 226 221 242 301 272 182 139 115 98 90 119 150 150 134 115 183 209 158 151 233 216 172 128 133 155 163 172 178 166 165 162 123 107 107 95 92 71 332 5 87 43 61 110 194 214 192 167 188 204 177 172 178 163 181 208 238 234 249 243 181 171 220 208 224 244 254 258 238 219 202 207 225 215 199 201 188 183 184 182 180 176
234 238 233 222 214 211 211 213 205 221 257 204 154 125 112 101 71 292 204 183 207 192 158 197 187 166 190 201 135 123 126 133 143 177 178 169 165 153 93 76 65 55 119 158 208 260 113 137 187 197 207 206 197 195 200 186 149 142 136 144 184 198 255 251 252 271 187 167 240 224 226 243 248 256 254 227 199 215 226 217 210 201 192 192 188 185 180 178
231 235 233 220 212 205 199 207 204 212 232 189 159 134 164 160 140 225 221 245 254 245 252 222 201 235 309 158 153 144 128 107 33 182 176 172 159 150 151 80 85 31 212 156 144 51 113 181 222 222 211 201 197 198 203 184 150 153 152 188 241 213 245 256 240 279 223 170 257 250 240 254 251 254 261 225 191 219 219 210 213 203 196 196 185 182 177 170
231 234 230 216 209 200 197 210 202 206 227 196 184 213 251 193 111 78 161 247 265 242 236 239 247 279 271 171 169 160 100 99 183 212 178 167 156 170 181 100 138 196 180 116 103 110 191 228 238 231 193 163 198 188 186 205 207 217 180 180 249 237 256 283 285 298 331 174 263 282 260 257 257 260 262 236 213 228 220 206 209 199 192 193 184 180 170 163
230 230 227 214 204 197 198 202 193 207 224 205 201 210 219 171 99 42 109 182 293 242 218 214 220 233 228 202 186 178 144 159 174 222 187 161 158 185 147 141 179 164 131 159 165 172 201 245 244 219 149 155 213 175 155 196 228 219 190 168 235 245 225 268 289 306 318 214 260 296 290 266 265 270 262 249 236 252 246 218 213 199 192 191 183 177 169 167
227 226 225 208 197 197 196 189 189 213 225 224 227 213 163 129 130 57 64 246 294 263 217 205 204 200 197 202 184 180 206 195 167 195 187 165 142 160 159 170 169 146 182 197 187 192 214 241 233 171 160 177 201 175 150 175 237 235 207 190 210 226 216 229 280 320 340 347 350 327 309 274 245 249 252 267 310 284 269 232 220 204 187 174 161 167 171 170
226 225 221 202 194 193 187 188 202 211 215 233 235 217 178 136 106 61 60 12 281 282 275 201 191 201 196 178 171 172 188 233 210 183 181 173 153 142 181 173 144 187 206 193 190 219 235 240 106 133 166 173 180 201 183 177 212 258 226 203 200 201 214 228 356 13 355 331 319 2 298 279 278 249 252 282 309 259 260 235 221 197 168 163 162 172 171 169
224 223 217 200 191 183 180 197 211 203 204 236 234 212 186 166 111 77 88 36 280 263 206 179 179 189 184 162 158 144 72 247 248 161 171 180 174 139 161 168 115 208 195 167 191 235 230 214 123 130 162 166 178 222 219 178 179 253 240 204 192 178 192 202 150 104 248 266 292 79 192 273 297 246 242 248 237 249 257 242 228 199 184 185 178 175 168 167
222 220 212 198 186 181 184 198 192 183 187 247 234 203 190 185 164 120 86 21 280 196 139 198 191 166 171 165 155 134 197 225 94 134 170 183 191 119 157 187 153 199 170 134 231 253 188 192 175 146 144 162 186 223 220 171 160 241 245 171 163 166 186 190 165 184 231 258 311 33 128 275 283 248 240 219 217 264 264 237 227 208 203 197 182 175 171 171
221 218 208 196 187 187 195 178 169 176 181 210 200 186 188 182 173 124 92 209 275 129 127 250 151 135 144 153 149 133 227 184 116 191 195 156 190 100 198 204 178 187 173 153 218 265 157 179 194 183 168 186 201 214 186 156 165 242 198 130 135 150 158 136 135 176 324 357 290 271 117 274 274 259 290 22 219 258 256 234 217 206 204 195 183 179 172 171
218 216 206 195 190 195 205 196 175 189 199 188 141 174 174 169 167 82 79 205 263 88 108 121 126 106 111 141 155 111 41 52 125 229 18 117 183 64 189 202 157 180 202 186 207 249 139 189 193 174 181 206 202 210 173 163 187 204 129 96 72 73 75 77 102 111 43 315 240 206 156 231 271 240 148 50 229 241 252 242 210 199 200 191 181 178 171 167
215 213 204 193 195 202 205 207 199 195 199 200 168 160 155 150 145 99 171 219 210 106 97 116 156 162 144 149 178 24 94 58 58 79 50 96 37 29 160 153 93 147 247 334 240 245 313 279 202 161 179 188 146 93 169 176 168 137 101 67 51 35 38 47 49 82 54 277 217 185 180 190 269 258 182 202 225 221 242 264 214 194 191 189 183 178 170 166
215 212 202 195 200 202 197 203 201 190 182 177 155 146 143 105 81 160 205 231 38 137 129 132 187 146 154 160 174 181 137 96 150 142 142 149 76 51 73 110 79 95 306 317 301 304 340 2 259 236 161 128 103 79 21 46 127 112 90 85 76 353 11 23 356 53 202 258 210 186 186 183 232 258 227 245 256 224 210 235 220 197 194 192 183 177 171 165
216 211 203 199 203 201 197 202 196 185 165 159 152 144 148 119 193 216 216 100 103 200 166 161 186 162 167 174 180 173 152 157 178 163 161 155 171 185 192 193 170 126 252 240 249 325 307 236 256 316 215 146 121 95 29 10 54 95 100 111 119 315 1 349 311 64 223 259 274 198 175 196 238 255 263 265 268 248 220 234 220 195 196 192 178 174 169 163
217 211 203 201 204 204 203 202 193 184 164 159 154 121 133 172 205 219 212 191 215 202 142 133 155 162 167 174 187 164 136 180 178 166 167 142 171 212 239 222 182 157 191 198 194 194 270 298 302 166 267 198 156 156 159 203 184 156 143 144 157 160 181 249 254 273 256 267 294 265 177 243 271 273 255 253 264 274 254 253 235 197 191 184 176 170 163 166
221 211 204 202 204 206 205 199 194 185 168 159 153 112 160 201 214 210 210 210 188 69 93 125 133 142 165 178 200 170 155 216 177 153 160 142 164 213 232 233 206 153 96 147 174 178 215 286 210 183 221 189 181 187 169 145 164 184 161 149 167 167 178 215 208 221 251 274 293 274 191 201 204 251 250 249 273 307 302 274 235 148 167 159 154 156 159 171
223 212 205 201 204 208 204 199 194 183 169 157 161 172 183 206 217 213 209 189 142 86 59 102 119 130 192 234 265 192 168 206 177 148 167 172 184 200 198 210 200 157 127 173 209 167 203 264 241 221 227 170 184 198 126 111 147 223 126 127 189 186 171 196 200 180 179 269 274 228 223 216 209 259 266 268 292 322 355 11 90 104 126 134 146 163 169 175
218 210 205 198 202 206 200 196 192 182 171 157 176 191 200 208 207 205 194 160 159 145 110 96 103 140 198 212 248 219 182 130 157 162 201 203 213 203 193 207 192 183 181 175 186 167 178 274 283 351 14 171 182 178 134 144 181 169 142 175 205 163 140 149 266 104 102 256 254 197 241 284 309 279 271 118 279 290 350 17 110 126 138 150 167 176 177 181
213 205 201 199 202 202 197 194 188 181 176 175 190 195 209 215 187 148 174 154 142 141 135 163 184 168 188 193 205 206 187 125 158 175 196 202 233 199 190 221 194 195 203 186 200 195 156 253 291 87 171 252 285 108 60 19 134 131 180 196 147 55 97 118 255 336 79 252 270 211 235 260 247 264 307 68 240 254 252 227 155 154 164 176 188 186 187 185
219 206 201 204 203 197 194 193 184 177 179 204 205 208 217 218 190 141 171 141 134 153 167 201 200 174 180 191 197 185 178 182 173 179 185 193 242 197 177 201 201 198 206 196 220 239 148 216 299 70 179 287 356 95 39 355 72 127 190 187 123 136 197 127 186 217 192 241 281 270 250 241 206 220 248 188 218 229 224 205 195 196 190 191 193 189 190 183
236 231 226 212 202 195 193 191 183 176 191 202 206 220 220 217 215 189 179 155 153 168 189 207 201 179 183 181 173 172 184 188 169 174 190 188 232 204 174 185 202 201 202 191 195 220 139 197 263 335 204 296 25 124 180 228 355 52 123 154 100 150 175 166 176 175 176 214 257 297 295 248 222 204 184 199 213 208 199 198 207 207 197 194 191 186 189 189
231 261 298 212 198 193 189 188 184 180 197 199 203 212 214 210 212 234 215 182 173 182 201 207 191 177 186 178 168 174 187 192 175 181 201 187 207 227 187 182 186 194 195 192 195 174 124 203 224 310 334 153 180 202 192 191 183 150 151 168 185 129 118 172 208 138 139 177 208 274 284 257 242 203 188 199 207 201 195 198 208 208 198 197 194 189 191 192
140 235 289 215 196 188 182 183 194 195 192 195 207 212 212 201 195 220 231 211 212 227 197 196 193 186 175 173 184 180 174 186 185 188 211 200 199 226 202 185 174 163 162 183 204 194 178 190 166 166 196 188 223 241 212 195 186 178 186 186 183 170 144 174 238 204 148 182 184 196 268 261 240 200 201 204 206 203 197 197 205 201 192 196 199 195 194 191
141 218 241 196 189 181 174 186 199 194 200 195 204 210 196 163 183 202 215 216 243 270 186 186 200 195 182 181 187 175 168 182 190 192 213 209 202 213 207 182 163 153 149 167 200 184 136 118 131 170 213 215 241 272 217 194 171 160 206 192 177 189 181 178 214 214 184 216 165 128 272 273 260 213 229 236 235 230 213 206 205 194 187 196 201 196 191 195
212 212 283 265 190 179 175 217 192 192 226 207 210 218 197 188 193 186 199 210 211 195 195 211 200 202 201 180 169 174 177 184 194 198 209 212 209 212 191 171 154 153 158 160 180 161 125 134 148 198 291 312 316 334 25 47 91 166 236 197 180 203 200 187 195 179 196 214 152 129 259 267 289 284 266 268 261 261 250 219 201 189 189 197 199 191 187 193
216 206 279 285 206 189 188 213 195 202 217 207 218 218 213 219 203 189 195 205 207 185 194 214 206 208 207 160 161 185 185 188 208 208 204 200 212 205 159 173 165 160 176 180 167 174 183 168 149 153 214 351 336 280 273 299 183 210 219 189 190 197 181 177 99 115 246 198 152 186 247 246 280 306 330 343 294 260 250 221 196 188 192 198 197 187 184 185
181 196 216 221 208 208 226 208 195 206 202 197 208 210 212 220 211 210 206 203 208 201 198 212 185 183 193 179 185 192 192 197 207 207 203 201 231 317 128 191 182 175 194 179 157 167 183 173 167 182 198 200 204 207 205 194 187 208 180 174 194 196 185 190 188 204 236 175 155 206 245 259 297 305 319 341 301 247 243 222 205 198 194 197 192 181 182 182
180 215 208 178 191 219 258 286 174 199 198 193 201 207 209 213 212 212 211 212 214 205 198 181 138 153 171 188 193 201 208 209 185 166 195 197 211 279 303 216 183 172 150 132 152 157 147 190 197 203 213 207 194 196 161 135 153 201 195 184 196 202 195 196 216 219 208 145 204 224 235 264 275 267 269 276 243 238 239 210 206 206 195 193 187 182 182 181
217 222 190 174 184 207 236 259 224 206 195 189 191 194 203 213 215 198 205 216 213 203 204 182 154 184 190 186 195 205 206 205 181 166 193 191 180 287 293 59 87 84 85 130 159 139 115 216 211 209 227 219 158 132 162 158 178 198 194 193 199 201 196 199 218 217 150 173 248 225 180 238 253 232 228 240 229 236 232 210 210 203 189 183 176 176 180 178
228 247 201 206 225 193 214 232 226 229 214 188 190 191 199 212 212 194 203 215 214 206 204 203 204 206 200 190 195 200 191 197 207 200 190 174 146 144 44 37 86 166 114 141 167 119 146 222 209 196 233 236 169 130 169 171 185 195 194 202 201 198 199 204 218 217 168 208 247 220 170 225 243 229 219 214 210 225 222 207 199 176 171 172 167 173 180 180
230 290 270 281 278 204 206 204 202 223 223 196 199 207 200 210 212 207 201 202 214 212 199 211 220 214 207 198 193 199 197 196 208 207 184 164 163 159 149 147 236 213 133 153 177 160 174 213 188 180 233 245 216 179 173 164 180 209 209 213 208 204 205 205 217 223 209 226 245 239 226 240 238 216 219 209 206 219 202 147 159 161 171 173 169 176 181 182
210 265 269 344 304 243 225 192 177 208 216 197 205 215 205 212 214 213 203 190 204 206 200 218 224 213 209 209 201 212 215 205 207 205 178 168 183 187 182 183 164 143 159 167 172 196 198 195 157 155 228 250 220 180 176 177 193 225 233 228 215 205 208 211 220 223 218 233 244 245 255 259 234 192 220 212 173 136 117 170 188 180 176 168 170 180 181 187
129 111 113 21 286 228 216 189 174 199 210 191 201 207 208 220 217 210 212 208 207 202 199 216 223 212 207 212 211 222 225 217 216 209 176 177 192 193 189 178 150 150 173 177 158 168 192 206 120 137 216 248 193 165 190 189 188 245 251 240 214 181 199 215 220 218 210 225 238 240 250 255 233 173 189 167 137 149 177 195 192 183 179 171 174 183 187 194
125 91 107 89 285 226 221 210 186 202 210 193 201 204 207 223 217 204 215 226 220 215 209 214 217 206 195 209 215 223 226 219 215 198 172 182 186 160 156 152 151 156 165 172 167 162 170 176 147 157 207 252 174 164 176 152 155 249 251 231 195 190 211 217 220 222 214 215 225 224 235 246 225 161 165 168 170 183 193 195 187 181 183 184 183 185 193 202